Location: Newark
(48.5667°N, 7.8167°E)
Time: 17:09:44
(UTC+00:00)

ISS - Visible Passes

Search period start: 09 May 2021 00:00
Search period end: 19 May 2021 00:00
Orbit: 418 x 421 km, 51.6° (Epoch: 09 May)

Date Brightness Start Highest point End Pass type
(mag) Time Alt. Az. Time Alt. Az. Time Alt. Az.
09 May -2.9 01:36:22 21° WNW 01:38:20 49° N 01:41:39 10° ENE visible
09 May -3.2 03:12:05 10° WNW 03:15:27 63° NNE 03:18:49 10° E visible
10 May -3.1 00:50:22 49° NW 00:50:50 55° N 00:54:10 10° ENE visible
10 May -3.0 02:24:37 10° WNW 02:27:57 54° N 02:31:18 10° E visible
11 May -2.6 00:04:21 41° NE 00:04:21 41° NE 00:06:43 10° ENE visible
11 May -2.8 01:37:16 11° WNW 01:40:27 49° N 01:43:45 10° E visible
11 May -3.8 03:14:02 10° WNW 03:17:25 77° SSW 03:20:48 10° ESE visible
11 May -1.5 23:18:16 18° ENE 23:18:16 18° ENE 23:19:16 10° ENE visible
12 May -2.8 00:51:11 24° WNW 00:52:56 47° N 00:56:14 10° ENE visible
12 May -3.7 02:26:35 10° WNW 02:29:59 80° NNE 02:33:22 10° ESE visible
13 May -2.9 00:05:01 46° NNW 00:05:24 49° N 00:08:43 10° ENE visible
13 May -3.3 01:39:09 10° WNW 01:42:31 64° NNE 01:45:53 10° E visible
13 May -2.7 23:18:38 43° NE 23:18:38 43° NE 23:21:14 10° ENE visible
14 May -3.0 00:51:41 10° WNW 00:55:01 54° N 00:58:21 10° E visible
14 May -3.7 02:28:33 10° WNW 02:31:52 53° SSW 02:35:10 10° SE visible
14 May -3.2 20:50:37 10° SSW 20:53:42 34° SE 20:55:37 19° E visible
14 May -3.4 22:27:02 10° W 22:30:23 65° NNW 22:33:45 10° ENE visible
15 May -2.8 00:04:12 10° WNW 00:07:29 49° N 00:10:48 10° E visible
15 May -3.9 01:41:04 10° WNW 01:44:27 76° SSW 01:47:50 10° ESE visible
15 May -2.6 20:03:39 10° SSW 20:06:23 23° SE 20:09:08 10° E visible
15 May -3.8 21:39:33 10° WSW 21:42:55 83° NNW 21:46:18 10° ENE visible
15 May -2.8 23:16:41 10° WNW 23:19:58 47° N 23:23:15 10° ENE visible
16 May -3.7 00:53:37 10° WNW 00:57:01 81° NNE 01:00:24 10° ESE visible
16 May -2.7 02:30:45 10° W 02:33:34 24° SW 02:36:22 10° SSE visible
16 May -3.9 20:52:07 10° WSW 20:55:28 73° SSE 20:58:50 10° ENE visible
16 May -2.8 22:29:08 10° W 22:32:26 49° N 22:35:44 10° ENE visible
17 May -3.4 00:06:10 10° WNW 00:09:32 64° NNE 00:12:54 10° E visible
17 May -3.2 01:43:06 10° WNW 01:46:15 36° SW 01:49:22 10° SE visible
17 May -3.6 20:04:48 10° SW 20:08:04 51° SSE 20:11:22 10° ENE visible
17 May -3.0 21:41:35 10° W 21:44:54 55° N 21:48:14 10° ENE visible
17 May -3.0 23:18:42 10° WNW 23:22:01 54° N 23:22:54 40° ENE visible
18 May -1.2 00:55:34 10° WNW 00:55:47 11° WNW 00:55:47 11° WNW visible
18 May -3.3 20:54:03 10° W 20:57:24 65° NNW 21:00:46 10° ENE visible
18 May -2.8 22:31:12 10° WNW 22:34:29 49° N 22:36:29 21° ENE visible
